Hour Ending, MW 
2013-05-01 01:00,538
2013-05-01 02:00,512
2013-05-01 03:00,483
2013-05-01 04:00,478
2013-05-01 05:00,490
2013-05-01 06:00,537
2013-05-01 07:00,636
2013-05-01 08:00,710
2013-05-01 09:00,685
2013-05-01 10:00,654
2013-05-01 11:00,644
2013-05-01 12:00,642
2013-05-01 13:00,642
2013-05-01 14:00,657
2013-05-01 15:00,641
2013-05-01 16:00,659
2013-05-01 17:00,643
2013-05-01 18:00,637
2013-05-01 19:00,641
2013-05-01 20:00,630
2013-05-01 21:00,667
2013-05-01 22:00,664
2013-05-01 23:00,546
2013-05-02 00:00,466
2013-05-02 01:00,415
2013-05-02 02:00,404
2013-05-02 03:00,401
2013-05-02 04:00,397
2013-05-02 05:00,381
2013-05-02 06:00,422
2013-05-02 07:00,492
2013-05-02 08:00,604
2013-05-02 09:00,660
2013-05-02 10:00,620
2013-05-02 11:00,580
2013-05-02 12:00,600
2013-05-02 13:00,591
2013-05-02 14:00,571
2013-05-02 15:00,576
2013-05-02 16:00,585
2013-05-02 17:00,607
2013-05-02 18:00,631
2013-05-02 19:00,652
2013-05-02 20:00,660
2013-05-02 21:00,711
2013-05-02 22:00,712
2013-05-02 23:00,591
2013-05-03 00:00,484
2013-05-03 01:00,442
2013-05-03 02:00,405
2013-05-03 03:00,328
2013-05-03 04:00,319
2013-05-03 05:00,385
2013-05-03 06:00,431
2013-05-03 07:00,507
2013-05-03 08:00,626
2013-05-03 09:00,671
2013-05-03 10:00,693
2013-05-03 11:00,675
2013-05-03 12:00,678
2013-05-03 13:00,657
2013-05-03 14:00,584
2013-05-03 15:00,557
2013-05-03 16:00,465
2013-05-03 17:00,572
2013-05-03 18:00,641
2013-05-03 19:00,544
2013-05-03 20:00,516
2013-05-03 21:00,549
2013-05-03 22:00,565
2013-05-03 23:00,553
2013-05-04 00:00,483
2013-05-04 01:00,441
2013-05-04 02:00,415
2013-05-04 03:00,392
2013-05-04 04:00,391
2013-05-04 05:00,422
2013-05-04 06:00,445
2013-05-04 07:00,483
2013-05-04 08:00,545
2013-05-04 09:00,588
2013-05-04 10:00,584
2013-05-04 11:00,637
2013-05-04 12:00,634
2013-05-04 13:00,612
2013-05-04 14:00,584
2013-05-04 15:00,570
2013-05-04 16:00,566
2013-05-04 17:00,581
2013-05-04 18:00,592
2013-05-04 19:00,597
2013-05-04 20:00,585
2013-05-04 21:00,596
2013-05-04 22:00,617
2013-05-04 23:00,549
2013-05-05 00:00,469
2013-05-05 01:00,431
2013-05-05 02:00,401
2013-05-05 03:00,345
2013-05-05 04:00,356
2013-05-05 05:00,380
2013-05-05 06:00,392
2013-05-05 07:00,449
2013-05-05 08:00,492
2013-05-05 09:00,554
2013-05-05 10:00,597
2013-05-05 11:00,612
2013-05-05 12:00,601
2013-05-05 13:00,595
2013-05-05 14:00,561
2013-05-05 15:00,508
2013-05-05 16:00,490
2013-05-05 17:00,511
2013-05-05 18:00,537
2013-05-05 19:00,529
2013-05-05 20:00,544
2013-05-05 21:00,553
2013-05-05 22:00,556
2013-05-05 23:00,481
2013-05-06 00:00,396
2013-05-06 01:00,347
2013-05-06 02:00,328
2013-05-06 03:00,328
2013-05-06 04:00,332
2013-05-06 05:00,359
2013-05-06 06:00,404
2013-05-06 07:00,537
2013-05-06 08:00,621
2013-05-06 09:00,625
2013-05-06 10:00,581
2013-05-06 11:00,661
2013-05-06 12:00,633
2013-05-06 13:00,607
2013-05-06 14:00,584
2013-05-06 15:00,549
2013-05-06 16:00,542
2013-05-06 17:00,560
2013-05-06 18:00,559
2013-05-06 19:00,525
2013-05-06 20:00,504
2013-05-06 21:00,513
2013-05-06 22:00,507
2013-05-06 23:00,384
2013-05-07 00:00,299
2013-05-07 01:00,266
2013-05-07 02:00,275
2013-05-07 03:00,286
2013-05-07 04:00,283
2013-05-07 05:00,283
2013-05-07 06:00,316
2013-05-07 07:00,429
2013-05-07 08:00,509
2013-05-07 09:00,521
2013-05-07 10:00,541
2013-05-07 11:00,564
2013-05-07 12:00,553
2013-05-07 13:00,538
2013-05-07 14:00,507
2013-05-07 15:00,491
2013-05-07 16:00,492
2013-05-07 17:00,513
2013-05-07 18:00,524
2013-05-07 19:00,513
2013-05-07 20:00,494
2013-05-07 21:00,544
2013-05-07 22:00,517
2013-05-07 23:00,441
2013-05-08 00:00,355
2013-05-08 01:00,321
2013-05-08 02:00,328
2013-05-08 03:00,316
2013-05-08 04:00,312
2013-05-08 05:00,340
2013-05-08 06:00,395
2013-05-08 07:00,486
2013-05-08 08:00,578
2013-05-08 09:00,602
2013-05-08 10:00,621
2013-05-08 11:00,633
2013-05-08 12:00,621
2013-05-08 13:00,612
2013-05-08 14:00,618
2013-05-08 15:00,603
2013-05-08 16:00,588
2013-05-08 17:00,610
2013-05-08 18:00,578
2013-05-08 19:00,564
2013-05-08 20:00,539
2013-05-08 21:00,542
2013-05-08 22:00,527
2013-05-08 23:00,436
2013-05-09 00:00,384
2013-05-09 01:00,356
2013-05-09 02:00,344
2013-05-09 03:00,330
2013-05-09 04:00,315
2013-05-09 05:00,308
2013-05-09 06:00,311
2013-05-09 07:00,392
2013-05-09 08:00,495
2013-05-09 09:00,517
2013-05-09 10:00,512
2013-05-09 11:00,522
2013-05-09 12:00,556
2013-05-09 13:00,556
2013-05-09 14:00,538
2013-05-09 15:00,549
2013-05-09 16:00,573
2013-05-09 17:00,570
2013-05-09 18:00,488
2013-05-09 19:00,453
2013-05-09 20:00,480
2013-05-09 21:00,490
2013-05-09 22:00,466
2013-05-09 23:00,408
2013-05-10 00:00,354
2013-05-10 01:00,308
2013-05-10 02:00,288
2013-05-10 03:00,277
2013-05-10 04:00,288
2013-05-10 05:00,304
2013-05-10 06:00,352
2013-05-10 07:00,454
2013-05-10 08:00,561
2013-05-10 09:00,609
2013-05-10 10:00,642
2013-05-10 11:00,661
2013-05-10 12:00,607
2013-05-10 13:00,530
2013-05-10 14:00,522
2013-05-10 15:00,529
2013-05-10 16:00,520
2013-05-10 17:00,517
2013-05-10 18:00,523
2013-05-10 19:00,516
2013-05-10 20:00,492
2013-05-10 21:00,500
2013-05-10 22:00,517
2013-05-10 23:00,498
2013-05-11 00:00,507
2013-05-11 01:00,451
2013-05-11 02:00,395
2013-05-11 03:00,378
2013-05-11 04:00,375
2013-05-11 05:00,383
2013-05-11 06:00,396
2013-05-11 07:00,415
2013-05-11 08:00,467
2013-05-11 09:00,503
2013-05-11 10:00,521
2013-05-11 11:00,541
2013-05-11 12:00,592
2013-05-11 13:00,557
2013-05-11 14:00,493
2013-05-11 15:00,460
2013-05-11 16:00,437
2013-05-11 17:00,464
2013-05-11 18:00,475
2013-05-11 19:00,446
2013-05-11 20:00,426
2013-05-11 21:00,431
2013-05-11 22:00,436
2013-05-11 23:00,404
2013-05-12 00:00,344
2013-05-12 01:00,362
2013-05-12 02:00,341
2013-05-12 03:00,303
2013-05-12 04:00,285
2013-05-12 05:00,283
2013-05-12 06:00,309
2013-05-12 07:00,293
2013-05-12 08:00,310
2013-05-12 09:00,360
2013-05-12 10:00,466
2013-05-12 11:00,511
2013-05-12 12:00,532
2013-05-12 13:00,497
2013-05-12 14:00,488
2013-05-12 15:00,454
2013-05-12 16:00,446
2013-05-12 17:00,464
2013-05-12 18:00,467
2013-05-12 19:00,449
2013-05-12 20:00,454
2013-05-12 21:00,464
2013-05-12 22:00,467
2013-05-12 23:00,415
2013-05-13 00:00,355
2013-05-13 01:00,311
2013-05-13 02:00,302
2013-05-13 03:00,323
2013-05-13 04:00,322
2013-05-13 05:00,324
2013-05-13 06:00,353
2013-05-13 07:00,468
2013-05-13 08:00,619
2013-05-13 09:00,651
2013-05-13 10:00,615
2013-05-13 11:00,570
2013-05-13 12:00,569
2013-05-13 13:00,566
2013-05-13 14:00,523
2013-05-13 15:00,545
2013-05-13 16:00,554
2013-05-13 17:00,575
2013-05-13 18:00,601
2013-05-13 19:00,596
2013-05-13 20:00,589
2013-05-13 21:00,596
2013-05-13 22:00,603
2013-05-13 23:00,547
2013-05-14 00:00,489
2013-05-14 01:00,449
2013-05-14 02:00,427
2013-05-14 03:00,418
2013-05-14 04:00,426
2013-05-14 05:00,434
2013-05-14 06:00,487
2013-05-14 07:00,575
2013-05-14 08:00,675
2013-05-14 09:00,703
2013-05-14 10:00,700
2013-05-14 11:00,703
2013-05-14 12:00,716
2013-05-14 13:00,720
2013-05-14 14:00,678
2013-05-14 15:00,640
2013-05-14 16:00,638
2013-05-14 17:00,638
2013-05-14 18:00,659
2013-05-14 19:00,660
2013-05-14 20:00,605
2013-05-14 21:00,602
2013-05-14 22:00,565
2013-05-14 23:00,508
2013-05-15 00:00,454
2013-05-15 01:00,428
2013-05-15 02:00,403
2013-05-15 03:00,386
2013-05-15 04:00,360
2013-05-15 05:00,392
2013-05-15 06:00,424
2013-05-15 07:00,524
2013-05-15 08:00,646
2013-05-15 09:00,679
2013-05-15 10:00,650
2013-05-15 11:00,650
2013-05-15 12:00,638
2013-05-15 13:00,613
2013-05-15 14:00,625
2013-05-15 15:00,600
2013-05-15 16:00,598
2013-05-15 17:00,617
2013-05-15 18:00,609
2013-05-15 19:00,578
2013-05-15 20:00,571
2013-05-15 21:00,584
2013-05-15 22:00,602
2013-05-15 23:00,549
2013-05-16 00:00,492
2013-05-16 01:00,448
2013-05-16 02:00,379
2013-05-16 03:00,349
2013-05-16 04:00,358
2013-05-16 05:00,365
2013-05-16 06:00,403
2013-05-16 07:00,474
2013-05-16 08:00,602
2013-05-16 09:00,599
2013-05-16 10:00,626
2013-05-16 11:00,612
2013-05-16 12:00,615
2013-05-16 13:00,602
2013-05-16 14:00,595
2013-05-16 15:00,591
2013-05-16 16:00,632
2013-05-16 17:00,692
2013-05-16 18:00,687
2013-05-16 19:00,642
2013-05-16 20:00,626
2013-05-16 21:00,640
2013-05-16 22:00,638
2013-05-16 23:00,582
2013-05-17 00:00,521
2013-05-17 01:00,451
2013-05-17 02:00,408
2013-05-17 03:00,393
2013-05-17 04:00,406
2013-05-17 05:00,423
2013-05-17 06:00,462
2013-05-17 07:00,541
2013-05-17 08:00,627
2013-05-17 09:00,639
2013-05-17 10:00,618
2013-05-17 11:00,596
2013-05-17 12:00,604
2013-05-17 13:00,586
2013-05-17 14:00,571
2013-05-17 15:00,507
2013-05-17 16:00,471
2013-05-17 17:00,474
2013-05-17 18:00,509
2013-05-17 19:00,547
2013-05-17 20:00,570
2013-05-17 21:00,568
2013-05-17 22:00,571
2013-05-17 23:00,521
2013-05-18 00:00,474
2013-05-18 01:00,432
2013-05-18 02:00,400
2013-05-18 03:00,381
2013-05-18 04:00,379
2013-05-18 05:00,381
2013-05-18 06:00,381
2013-05-18 07:00,397
2013-05-18 08:00,462
2013-05-18 09:00,518
2013-05-18 10:00,563
2013-05-18 11:00,558
2013-05-18 12:00,506
2013-05-18 13:00,498
2013-05-18 14:00,480
2013-05-18 15:00,461
2013-05-18 16:00,463
2013-05-18 17:00,484
2013-05-18 18:00,539
2013-05-18 19:00,545
2013-05-18 20:00,555
2013-05-18 21:00,565
2013-05-18 22:00,571
2013-05-18 23:00,548
2013-05-19 00:00,498
2013-05-19 01:00,437
2013-05-19 02:00,411
2013-05-19 03:00,414
2013-05-19 04:00,408
2013-05-19 05:00,427
2013-05-19 06:00,442
2013-05-19 07:00,454
2013-05-19 08:00,470
2013-05-19 09:00,467
2013-05-19 10:00,481
2013-05-19 11:00,475
2013-05-19 12:00,498
2013-05-19 13:00,500
2013-05-19 14:00,484
2013-05-19 15:00,473
2013-05-19 16:00,473
2013-05-19 17:00,485
2013-05-19 18:00,507
2013-05-19 19:00,511
2013-05-19 20:00,499
2013-05-19 21:00,556
2013-05-19 22:00,615
2013-05-19 23:00,560
2013-05-20 00:00,507
2013-05-20 01:00,452
2013-05-20 02:00,351
2013-05-20 03:00,329
2013-05-20 04:00,328
2013-05-20 05:00,348
2013-05-20 06:00,365
2013-05-20 07:00,394
2013-05-20 08:00,457
2013-05-20 09:00,550
2013-05-20 10:00,639
2013-05-20 11:00,630
2013-05-20 12:00,601
2013-05-20 13:00,584
2013-05-20 14:00,576
2013-05-20 15:00,557
2013-05-20 16:00,562
2013-05-20 17:00,593
2013-05-20 18:00,586
2013-05-20 19:00,596
2013-05-20 20:00,608
2013-05-20 21:00,631
2013-05-20 22:00,621
2013-05-20 23:00,523
2013-05-21 00:00,405
2013-05-21 01:00,352
2013-05-21 02:00,383
2013-05-21 03:00,366
2013-05-21 04:00,367
2013-05-21 05:00,388
2013-05-21 06:00,436
2013-05-21 07:00,534
2013-05-21 08:00,637
2013-05-21 09:00,703
2013-05-21 10:00,703
2013-05-21 11:00,662
2013-05-21 12:00,644
2013-05-21 13:00,632
2013-05-21 14:00,617
2013-05-21 15:00,622
2013-05-21 16:00,641
2013-05-21 17:00,652
2013-05-21 18:00,640
2013-05-21 19:00,634
2013-05-21 20:00,647
2013-05-21 21:00,641
2013-05-21 22:00,640
2013-05-21 23:00,625
2013-05-22 00:00,583
2013-05-22 01:00,536
2013-05-22 02:00,463
2013-05-22 03:00,430
2013-05-22 04:00,423
2013-05-22 05:00,431
2013-05-22 06:00,469
2013-05-22 07:00,514
2013-05-22 08:00,598
2013-05-22 09:00,637
2013-05-22 10:00,621
2013-05-22 11:00,644
2013-05-22 12:00,671
2013-05-22 13:00,660
2013-05-22 14:00,645
2013-05-22 15:00,621
2013-05-22 16:00,616
2013-05-22 17:00,621
2013-05-22 18:00,617
2013-05-22 19:00,654
2013-05-22 20:00,658
2013-05-22 21:00,679
2013-05-22 22:00,674
2013-05-22 23:00,541
2013-05-23 00:00,446
2013-05-23 01:00,381
2013-05-23 02:00,370
2013-05-23 03:00,339
2013-05-23 04:00,317
2013-05-23 05:00,285
2013-05-23 06:00,336
2013-05-23 07:00,422
2013-05-23 08:00,535
2013-05-23 09:00,569
2013-05-23 10:00,544
2013-05-23 11:00,534
2013-05-23 12:00,506
2013-05-23 13:00,489
2013-05-23 14:00,514
2013-05-23 15:00,509
2013-05-23 16:00,472
2013-05-23 17:00,500
2013-05-23 18:00,425
2013-05-23 19:00,358
2013-05-23 20:00,363
2013-05-23 21:00,390
2013-05-23 22:00,352
2013-05-23 23:00,336
2013-05-24 00:00,305
2013-05-24 01:00,252
2013-05-24 02:00,220
2013-05-24 03:00,220
2013-05-24 04:00,214
2013-05-24 05:00,215
2013-05-24 06:00,250
2013-05-24 07:00,347
2013-05-24 08:00,405
2013-05-24 09:00,425
2013-05-24 10:00,379
2013-05-24 11:00,354
2013-05-24 12:00,323
2013-05-24 13:00,272
2013-05-24 14:00,285
2013-05-24 15:00,266
2013-05-24 16:00,235
2013-05-24 17:00,258
2013-05-24 18:00,273
2013-05-24 19:00,255
2013-05-24 20:00,248
2013-05-24 21:00,256
2013-05-24 22:00,251
2013-05-24 23:00,293
2013-05-25 00:00,333
2013-05-25 01:00,303
2013-05-25 02:00,282
2013-05-25 03:00,266
2013-05-25 04:00,255
2013-05-25 05:00,262
2013-05-25 06:00,269
2013-05-25 07:00,285
2013-05-25 08:00,243
2013-05-25 09:00,301
2013-05-25 10:00,366
2013-05-25 11:00,393
2013-05-25 12:00,376
2013-05-25 13:00,348
2013-05-25 14:00,317
2013-05-25 15:00,297
2013-05-25 16:00,333
2013-05-25 17:00,406
2013-05-25 18:00,426
2013-05-25 19:00,406
2013-05-25 20:00,432
2013-05-25 21:00,430
2013-05-25 22:00,414
2013-05-25 23:00,384
2013-05-26 00:00,401
2013-05-26 01:00,415
2013-05-26 02:00,362
2013-05-26 03:00,329
2013-05-26 04:00,302
2013-05-26 05:00,296
2013-05-26 06:00,300
2013-05-26 07:00,339
2013-05-26 08:00,332
2013-05-26 09:00,333
2013-05-26 10:00,352
2013-05-26 11:00,342
2013-05-26 12:00,347
2013-05-26 13:00,318
2013-05-26 14:00,293
2013-05-26 15:00,263
2013-05-26 16:00,253
2013-05-26 17:00,278
2013-05-26 18:00,308
2013-05-26 19:00,323
2013-05-26 20:00,351
2013-05-26 21:00,378
2013-05-26 22:00,429
2013-05-26 23:00,441
2013-05-27 00:00,390
2013-05-27 01:00,339
2013-05-27 02:00,288
2013-05-27 03:00,265
2013-05-27 04:00,248
2013-05-27 05:00,249
2013-05-27 06:00,273
2013-05-27 07:00,346
2013-05-27 08:00,461
2013-05-27 09:00,491
2013-05-27 10:00,456
2013-05-27 11:00,509
2013-05-27 12:00,528
2013-05-27 13:00,554
2013-05-27 14:00,534
2013-05-27 15:00,465
2013-05-27 16:00,462
2013-05-27 17:00,482
2013-05-27 18:00,516
2013-05-27 19:00,468
2013-05-27 20:00,462
2013-05-27 21:00,471
2013-05-27 22:00,475
2013-05-27 23:00,423
2013-05-28 00:00,400
2013-05-28 01:00,397
2013-05-28 02:00,385
2013-05-28 03:00,405
2013-05-28 04:00,399
2013-05-28 05:00,400
2013-05-28 06:00,435
2013-05-28 07:00,499
2013-05-28 08:00,557
2013-05-28 09:00,563
2013-05-28 10:00,550
2013-05-28 11:00,514
2013-05-28 12:00,508
2013-05-28 13:00,526
2013-05-28 14:00,521
2013-05-28 15:00,517
2013-05-28 16:00,533
2013-05-28 17:00,565
2013-05-28 18:00,584
2013-05-28 19:00,569
2013-05-28 20:00,527
2013-05-28 21:00,542
2013-05-28 22:00,549
2013-05-28 23:00,473
2013-05-29 00:00,407
2013-05-29 01:00,363
2013-05-29 02:00,312
2013-05-29 03:00,332
2013-05-29 04:00,358
2013-05-29 05:00,361
2013-05-29 06:00,408
2013-05-29 07:00,520
2013-05-29 08:00,563
2013-05-29 09:00,578
2013-05-29 10:00,567
2013-05-29 11:00,584
2013-05-29 12:00,602
2013-05-29 13:00,600
2013-05-29 14:00,580
2013-05-29 15:00,552
2013-05-29 16:00,500
2013-05-29 17:00,497
2013-05-29 18:00,502
2013-05-29 19:00,459
2013-05-29 20:00,406
2013-05-29 21:00,414
2013-05-29 22:00,404
2013-05-29 23:00,339
2013-05-30 00:00,244
2013-05-30 01:00,256
2013-05-30 02:00,257
2013-05-30 03:00,263
2013-05-30 04:00,263
2013-05-30 05:00,273
2013-05-30 06:00,270
2013-05-30 07:00,319
2013-05-30 08:00,394
2013-05-30 09:00,425
2013-05-30 10:00,432
2013-05-30 11:00,501
2013-05-30 12:00,530
2013-05-30 13:00,546
2013-05-30 14:00,594
2013-05-30 15:00,588
2013-05-30 16:00,571
2013-05-30 17:00,565
2013-05-30 18:00,558
2013-05-30 19:00,569
2013-05-30 20:00,554
2013-05-30 21:00,547
2013-05-30 22:00,557
2013-05-30 23:00,477
2013-05-31 00:00,412
2013-05-31 01:00,393
2013-05-31 02:00,372
2013-05-31 03:00,339
2013-05-31 04:00,342
2013-05-31 05:00,365
2013-05-31 06:00,362
2013-05-31 07:00,418
2013-05-31 08:00,509
2013-05-31 09:00,569
2013-05-31 10:00,607
2013-05-31 11:00,604
2013-05-31 12:00,598
2013-05-31 13:00,582
2013-05-31 14:00,558
2013-05-31 15:00,525
2013-05-31 16:00,523
2013-05-31 17:00,504
2013-05-31 18:00,478
2013-05-31 19:00,444
2013-05-31 20:00,426
2013-05-31 21:00,408
2013-05-31 22:00,418
2013-05-31 23:00,364
2013-06-01 00:00,316
